Voltar ao catálogo

BREEZE-M R/B

AtivoHEO
NORAD 64468·ROCKET BODY·🇷🇺 Russia

Lançado Jun 19, 2025 de Plesetsk Cosmodrome

Loading…

Próximas Passagens (próximas 24 horas)

TLE

ObsoletoSource: Space-Track

Época: Jun 17, 2026, 01:22 UTC

1 64468U 25131B   26168.05694913 -.00000180  00000-0  00000-0 0  9990
2 64468   0.1988  23.8522 3855369  81.3566 299.8771  1.04431882  3788

Acompanhe BREEZE-M R/B em tempo real com AllMySat

Download on the App Store